Spirit of St Louis, MO

6:50 PM CST on February 24, 2018 (GMT -0600)
Spirit Of Saint Louis

Weather History for KSUS - October, 2013

Change the Weather History Date:

Saturday, October 19, 2013

  Actual Average Record
Temperature  
Mean Temperature 48 °F -  
Max Temperature 57 °F 65 °F 82 °F (2003)
Min Temperature 39 °F 41 °F 27 °F (1997)
Degree Days  
Heating Degree Days 17    
Moisture  
Dew Point 37 °F    
Average Humidity 77    
Maximum Humidity 93    
Minimum Humidity 40    
Precipitation  
Precipitation 0.20 in - - ()
Sea Level Pressure  
Sea Level Pressure 30.00 in    
Wind  
Wind Speed 7 mph (West)    
Max Wind Speed 14 mph    
Max Gust Speed 23 mph    
Visibility 9 miles    
Events Rain    
Averages and records for this station are not official NWS values.
T = Trace of Precipitation, MM = Missing Value Source: NWS Daily Summary

Daily Weather History Graph

Daily Weather History Graph

Search for Another Location

Airport or City:

Trip Planner

Search our weather history database for the weather conditions in past years. The results will help you decide how hot, cold, wet, or windy it might be!

Date:

Astronomy

Oct. 19, 2013 Rise Set
Actual Time 7:16 AM CDT 6:18 PM CDT
Civil Twilight 6:49 AM CDT 6:45 PM CDT
Nautical Twilight 6:18 AM CDT 7:16 PM CDT
Astronomical Twilight 5:47 AM CDT 7:46 PM CDT
Moon 6:47 PM CDT (10/19) 7:53 AM CDT (10/19)
Length of Visible Light 11h 56m
Length of Day
11h 02m
Waxing Gibbous, 99% of the Moon is Illuminated
Oct 19
Waxing Gibbous
Oct 26
Last Quarter
Nov 3
New
Nov 9
First Quarter
Nov 17
Full

Hourly Weather History & Observations

Time (CDT) Temp. Windchill Dew Point Humidity Pressure Visibility Wind Dir Wind Speed Gust Speed Precip Events Conditions
12:12 AM 42.8 °F 39.3 °F 39.2 °F 87% 30.01 in 7.0 mi NW 5.8 mph - 0.01 in Rain Light Rain
12:35 AM 42.8 °F 39.3 °F 39.2 °F 87% 30.01 in 9.0 mi NW 5.8 mph - 0.03 in Rain Light Rain
12:54 AM 43.0 °F 40.3 °F 39.9 °F 89% 30.01 in 6.0 mi WNW 4.6 mph - 0.06 in Rain Light Rain
1:42 AM 42.8 °F 40.1 °F 41.0 °F 93% 30.01 in 8.0 mi West 4.6 mph - 0.04 in Rain Light Rain
1:50 AM 42.8 °F 38.6 °F 41.0 °F 93% 30.01 in 8.0 mi West 6.9 mph - 0.05 in Rain Light Rain
1:54 AM 43.0 °F 38.8 °F 41.0 °F 93% 30.02 in 7.0 mi West 6.9 mph - 0.06 in Rain Light Rain
2:17 AM 42.8 °F 39.3 °F 41.0 °F 93% 30.01 in 10.0 mi WNW 5.8 mph - 0.02 in Rain Light Rain
2:54 AM 43.0 °F 39.5 °F 41.0 °F 93% 30.03 in 6.0 mi West 5.8 mph - 0.04 in Rain Light Rain
3:09 AM 42.8 °F 38.6 °F 39.2 °F 87% 30.01 in 8.0 mi WNW 6.9 mph - 0.01 in Rain Light Rain
3:54 AM 41.0 °F 35.8 °F 37.9 °F 89% 30.01 in 10.0 mi NW 8.1 mph - 0.04 in Rain Light Rain
4:01 AM 41.0 °F 36.4 °F 37.4 °F 87% 30.00 in 10.0 mi NW 6.9 mph - 0.00 in Rain Light Rain
4:43 AM 41.0 °F 37.1 °F 37.4 °F 87% 30.00 in 10.0 mi NW 5.8 mph - 0.00 in   Overcast
4:54 AM 41.0 °F 39.0 °F 37.9 °F 89% 30.01 in 10.0 mi West 3.5 mph - 0.00 in   Overcast
5:54 AM 41.0 °F 37.1 °F 39.0 °F 93% 30.02 in 10.0 mi WSW 5.8 mph - N/A   Overcast
6:54 AM 39.9 °F 35.8 °F 37.9 °F 93% 30.02 in 10.0 mi WSW 5.8 mph - N/A   Scattered Clouds
7:05 AM 39.2 °F 34.2 °F 37.4 °F 93% 30.02 in 10.0 mi WSW 6.9 mph - N/A   Mostly Cloudy
7:50 AM 41.0 °F 35.8 °F 37.4 °F 87% 30.02 in 10.0 mi WSW 8.1 mph - N/A   Mostly Cloudy
7:54 AM 39.9 °F 33.9 °F 37.9 °F 93% 30.03 in 10.0 mi WSW 9.2 mph - N/A   Mostly Cloudy
8:54 AM 42.1 °F 36.1 °F 39.0 °F 89% 30.04 in 10.0 mi WSW 10.4 mph - N/A   Overcast
9:54 AM 42.1 °F 35.2 °F 37.9 °F 85% 30.05 in 10.0 mi WSW 12.7 mph - N/A   Mostly Cloudy
10:54 AM 44.1 °F 39.5 °F 37.9 °F 79% 30.04 in 10.0 mi WSW 8.1 mph - N/A   Scattered Clouds
11:54 AM 48.0 °F - 37.9 °F 68% 30.04 in 10.0 mi WSW 11.5 mph - N/A   Partly Cloudy
12:54 PM 52.0 °F - 37.0 °F 57% 30.01 in 10.0 mi WSW 9.2 mph 18.4 mph N/A   Partly Cloudy
1:54 PM 55.9 °F - 35.1 °F 45% 29.98 in 10.0 mi West 13.8 mph 20.7 mph N/A   Scattered Clouds
2:54 PM 57.0 °F - 34.0 °F 42% 29.97 in 10.0 mi WSW 12.7 mph 23.0 mph N/A   Clear
3:54 PM 57.0 °F - 33.1 °F 40% 29.97 in 10.0 mi WSW 12.7 mph - N/A   Partly Cloudy
4:54 PM 57.0 °F - 33.1 °F 40% 29.96 in 10.0 mi West 11.5 mph - N/A   Partly Cloudy
5:54 PM 54.0 °F - 34.0 °F 47% 29.96 in 10.0 mi SW 6.9 mph - N/A   Clear
6:54 PM 50.0 °F - 34.0 °F 54% 29.97 in 10.0 mi SSW 6.9 mph - N/A   Clear
7:54 PM 48.0 °F - 34.0 °F 58% 29.98 in 10.0 mi South 5.8 mph - N/A   Clear
8:54 PM 41.0 °F - 37.0 °F 86% 29.99 in 10.0 mi Calm Calm - N/A   Clear
9:54 PM 46.9 °F - 36.0 °F 66% 29.99 in 10.0 mi SW 4.6 mph - N/A   Clear
10:54 PM 48.0 °F - 36.0 °F 63% 29.98 in 10.0 mi SSW 11.5 mph - N/A   Clear
11:54 PM 46.9 °F - 36.0 °F 66% 29.98 in 10.0 mi SW 6.9 mph - N/A   Clear